Waarnemingen

Advertentie
Mijn weer
Villanueva De Cordoba, Spanje (8346): temperatuur & dauwpunt: 05.07.2020 02:00:00 - 11.07.2020 02:00:00 (CEST)Villanueva De Cordoba, Spanje (8346): windsnelheid & windstoten: 05.07.2020 02:00:00 - 11.07.2020 02:00:00 (CEST)Villanueva De Cordoba, Spanje (8346): windrichting: 05.07.2020 02:00:00 - 11.07.2020 02:00:00 (CEST)Villanueva De Cordoba, Spanje (8346): luchtdruk: 05.07.2020 02:00:00 - 11.07.2020 02:00:00 (CEST)Villanueva De Cordoba, Spanje (8346): zicht: 05.07.2020 02:00:00 - 11.07.2020 02:00:00 (CEST)Villanueva De Cordoba, Spanje (8346): Zonneschijnduur: 05.07.2020 02:00:00 - 11.07.2020 02:00:00 (CEST)Villanueva De Cordoba, Spanje (8346): neerslag: 05.07.2020 02:00:00 - 11.07.2020 02:00:00 (CEST)
Datum & Tijd tt [°C] td [°C] ff [km/u] ff [kn] fx [km/u] fx [kn] dd ppp [hPa] vv [km] sd [min] rr [mm]
11.07.2020 02:00:00 - - - - - - - - - - -
11.07.2020 01:00:00 26,7 7,1 9 5 15 8 W 1011,5 20 0 0,0
11.07.2020 00:00:00 27,1 7,0 8 4 14 8 ZW 1011,6 20 0 0,0
10.07.2020 23:00:00 27,7 6,4 9 5 14 8 ZW 1011,0 20 0 0,0
10.07.2020 22:00:00 30,2 6,1 10 6 26 14 ZW 1009,8 20 0 0,0
10.07.2020 21:00:00 33,1 5,6 11 6 27 14 ZW 1008,6 20 58 0,0
10.07.2020 20:00:00 34,6 2,1 6 4 24 13 W 1007,9 20 54 -
10.07.2020 19:00:00 35,1 1,5 8 4 22 12 ZZW 1007,8 20 60 0,0
10.07.2020 18:00:00 34,8 1,3 12 7 27 15 NW 1008,2 20 60 0,0
10.07.2020 17:00:00 35,3 2,7 9 5 27 15 N 1008,3 20 59 0,0
10.07.2020 16:00:00 35,2 2,7 9 5 31 17 W 1008,8 20 59 0,0
10.07.2020 15:00:00 34,1 2,9 9 5 27 14 NNW 1009,9 20 60 0,0
10.07.2020 14:00:00 33,2 3,9 5 3 20 11 W 1010,6 20 60 -
10.07.2020 13:00:00 31,8 4,5 8 4 21 11 N 1011,2 20 60 0,0
10.07.2020 12:00:00 29,8 6,4 8 5 19 11 NNW 1011,9 14 60 0,0
10.07.2020 11:00:00 28,2 7,4 5 3 14 7 NNW 1012,3 20 60 0,0
10.07.2020 10:00:00 25,6 11,0 4 2 9 5 Z 1012,8 20 60 0,0
10.07.2020 09:00:00 20,8 11,1 2 1 6 3 Z 1014,1 20 55 0,0
10.07.2020 08:00:00 17,5 11,8 5 3 13 7 ZZO 1014,9 20 0 -
10.07.2020 07:00:00 16,9 11,2 8 5 13 7 ZZO 1014,9 20 0 0,0
10.07.2020 06:00:00 17,2 7,6 7 4 15 8 Z 1014,9 20 0 0,0
10.07.2020 05:00:00 19,0 6,8 9 5 18 10 Z 1014,3 20 0 0,0
10.07.2020 04:00:00 20,2 6,8 6 4 12 6 ZZO 1014,2 20 0 0,0
10.07.2020 03:00:00 20,4 7,7 4 2 9 5 Z 1014,4 20 0 0,0
10.07.2020 02:00:00 21,3 7,6 6 3 17 9 ONO 1014,4 20 0 -
10.07.2020 01:00:00 23,1 6,4 8 5 26 14 NNO 1014,2 20 0 0,0
10.07.2020 00:00:00 24,5 6,7 8 5 17 9 W 1013,4 20 0 0,0
09.07.2020 23:00:00 25,2 4,3 9 5 17 9 ZW 1013,0 20 0 0,0
09.07.2020 22:00:00 27,5 1,9 9 5 24 13 ZZW 1011,9 20 14 0,0
09.07.2020 21:00:00 30,7 2,1 13 7 29 16 ZZW 1010,6 20 58 0,0
09.07.2020 20:00:00 32,5 1,5 8 4 19 11 ZZW 1009,7 20 47 -
09.07.2020 19:00:00 33,5 1,3 10 5 22 12 ZZW 1009,4 20 56 0,0
09.07.2020 18:00:00 33,8 1,5 13 7 25 14 Z 1009,9 20 58 0,0
09.07.2020 17:00:00 33,5 2,3 10 6 26 14 Z 1010,7 20 53 0,0
09.07.2020 16:00:00 33,2 1,1 8 4 26 14 OZO 1011,3 20 60 0,0
09.07.2020 15:00:00 32,4 2,5 11 6 29 15 Z 1012,1 20 60 0,0
09.07.2020 14:00:00 31,4 5,0 10 5 28 15 Z 1012,7 20 60 -
09.07.2020 13:00:00 31,2 5,6 12 6 27 15 Z 1013,0 20 60 0,0
09.07.2020 12:00:00 29,3 4,6 8 4 18 10 Z 1013,7 20 60 0,0
09.07.2020 11:00:00 27,5 4,5 4 2 16 8 WZW 1014,6 20 60 0,0
09.07.2020 10:00:00 24,2 5,5 8 4 15 8 ZW 1015,4 20 60 0,0
09.07.2020 09:00:00 20,8 4,8 5 3 12 6 ZZO 1016,1 20 56 0,0
09.07.2020 08:00:00 17,8 0,4 7 4 13 7 ZZO 1016,2 20 0 -
09.07.2020 07:00:00 17,5 -3,3 8 4 16 8 Z 1016,1 20 0 0,0
09.07.2020 06:00:00 18,3 -2,7 9 5 16 9 Z 1015,7 20 0 0,0
09.07.2020 05:00:00 18,9 -2,2 10 5 20 11 Z 1015,8 20 0 0,0
09.07.2020 04:00:00 19,2 0,6 11 6 19 10 Z 1015,6 20 0 0,0
09.07.2020 03:00:00 20,1 2,5 10 6 20 11 Z 1015,5 20 0 0,0
09.07.2020 02:00:00 21,0 2,3 9 5 23 13 Z 1015,3 20 0 -
09.07.2020 01:00:00 22,9 1,3 13 7 26 14 ZZW 1014,5 20 0 0,0
09.07.2020 00:00:00 24,5 5,3 13 7 26 14 WZW 1013,6 20 0 0,0
08.07.2020 23:00:00 25,8 4,3 14 7 23 13 ZW 1012,1 20 0 0,0
08.07.2020 22:00:00 28,4 1,1 8 5 28 15 ZZW 1010,7 20 10 0,0
08.07.2020 21:00:00 31,7 2,9 16 9 46 25 ZZW 1009,1 20 58 0,0
08.07.2020 20:00:00 33,6 2,5 18 10 41 22 ZW 1008,4 20 60 -
08.07.2020 19:00:00 34,6 2,1 19 10 41 22 ZW 1008,1 20 60 0,0
08.07.2020 18:00:00 35,3 2,7 22 12 44 24 ZZW 1008,2 20 45 0,0
08.07.2020 17:00:00 34,4 2,1 22 12 54 29 ZZW 1008,9 20 34 0,0
08.07.2020 16:00:00 36,2 2,3 24 13 60 33 ZZW 1008,5 19 7 0,0
08.07.2020 15:00:00 34,0 2,7 22 12 45 24 ZZW 1009,6 20 0 0,0
08.07.2020 14:00:00 33,7 2,5 22 12 47 26 ZZW 1010,0 20 0 -
08.07.2020 13:00:00 34,1 3,8 20 11 40 21 ZZW 1009,8 20 29 0,0
08.07.2020 12:00:00 34,2 4,8 16 9 33 18 ZZW 1009,5 20 50 0,0
08.07.2020 11:00:00 32,6 5,9 13 7 29 15 Z 1009,9 20 56 0,0
08.07.2020 10:00:00 30,3 5,5 11 6 23 12 ZZO 1010,6 20 58 0,0
08.07.2020 09:00:00 27,8 5,9 7 4 16 9 ZZO 1011,1 20 0 0,0
08.07.2020 08:00:00 25,9 5,9 7 4 16 9 ZZO 1011,5 20 0 -
08.07.2020 07:00:00 25,3 6,5 6 3 14 8 OZO 1011,1 20 0 0,0
08.07.2020 06:00:00 26,2 6,2 5 3 19 11 ZZW 1011,2 20 0 0,0
08.07.2020 05:00:00 26,6 6,5 8 4 13 7 ZW 1012,2 20 0 0,0
08.07.2020 04:00:00 26,6 6,1 8 4 13 7 ZW 1012,2 20 0 0,0
08.07.2020 03:00:00 26,5 6,5 9 5 23 12 ZW 1012,5 20 0 0,0
08.07.2020 02:00:00 28,1 6,2 2 1 11 6 W 1012,2 20 0 -
08.07.2020 01:00:00 28,3 4,5 7 4 11 6 ZW 1013,1 20 0 0,0
08.07.2020 00:00:00 29,9 5,9 6 4 14 8 WZW 1012,6 20 0 0,0
07.07.2020 23:00:00 31,3 5,6 8 5 26 14 ZW 1012,0 20 0 0,0
07.07.2020 22:00:00 33,3 5,0 11 6 27 14 WZW 1011,0 20 0 0,0
07.07.2020 21:00:00 36,1 4,3 10 5 29 16 ZZW 1009,7 20 17 0,0
07.07.2020 20:00:00 37,9 -0,5 10 6 31 17 NW 1009,0 20 60 -
07.07.2020 19:00:00 38,7 0,2 16 9 32 17 W 1009,1 20 60 0,0
07.07.2020 18:00:00 39,1 0,4 11 6 43 23 WNW 1009,4 20 60 0,0
07.07.2020 17:00:00 38,8 0,2 20 11 37 20 WNW 1010,1 20 60 0,0
07.07.2020 16:00:00 39,3 0,6 11 6 41 22 W 1010,0 20 60 0,0
07.07.2020 15:00:00 38,8 4,3 11 6 32 17 W 1010,3 20 40 0,0
07.07.2020 14:00:00 37,2 5,3 10 5 27 14 WNW 1011,0 20 60 -
07.07.2020 13:00:00 36,9 3,9 6 4 17 9 Z 1011,4 20 60 0,0
07.07.2020 12:00:00 35,5 5,8 6 3 16 9 ZW 1011,9 20 60 0,0
07.07.2020 11:00:00 33,2 7,3 4 2 10 5 ZW 1012,2 20 60 0,0
07.07.2020 10:00:00 29,6 8,1 4 2 9 5 NW 1013,1 20 60 0,0
07.07.2020 09:00:00 26,0 7,6 3 2 11 6 WNW 1014,0 20 58 0,0
07.07.2020 08:00:00 23,4 6,2 8 5 14 8 NW 1014,3 20 0 -
07.07.2020 07:00:00 23,6 5,5 9 5 17 9 NW 1014,1 7 0 0,0
07.07.2020 06:00:00 24,0 4,8 10 5 19 10 NW 1014,0 20 0 0,0
07.07.2020 05:00:00 24,9 4,1 11 6 18 10 NW 1013,8 20 0 0,0
07.07.2020 04:00:00 25,7 4,8 9 5 17 9 WNW 1013,8 20 0 0,0
07.07.2020 03:00:00 27,3 5,6 13 7 24 13 W 1013,7 20 0 0,0
07.07.2020 02:00:00 28,0 5,6 10 5 19 10 W 1013,3 20 0 -
07.07.2020 01:00:00 28,5 5,3 11 6 24 13 WZW 1013,4 20 0 0,0
07.07.2020 00:00:00 28,0 -0,3 9 5 16 9 ZW 1013,9 20 0 0,0
06.07.2020 23:00:00 30,0 -0,5 5 3 11 6 WZW 1012,9 20 0 0,0
06.07.2020 22:00:00 32,5 -1,7 5 3 24 13 NNW 1011,8 20 20 0,0
06.07.2020 21:00:00 35,4 -2,2 12 7 30 16 NW 1010,8 20 57 0,0
06.07.2020 20:00:00 37,1 -1,0 14 7 29 16 NW 1010,2 20 60 -
06.07.2020 19:00:00 37,5 -0,7 13 7 29 16 NNW 1010,3 20 60 0,0
06.07.2020 18:00:00 38,4 0,0 6 3 29 15 W 1010,4 20 60 0,0
06.07.2020 17:00:00 37,9 1,1 12 7 34 19 N 1010,9 20 60 0,0
06.07.2020 16:00:00 37,3 0,6 8 5 34 18 N 1011,3 20 60 0,0
06.07.2020 15:00:00 37,4 1,9 5 3 25 14 O 1011,7 20 60 0,0
06.07.2020 14:00:00 36,4 1,3 13 7 31 17 WNW 1012,4 20 56 -
06.07.2020 13:00:00 35,7 5,1 8 4 18 10 ZW 1012,9 20 60 0,0
06.07.2020 12:00:00 33,7 6,8 4 2 14 8 O 1013,7 20 60 0,0
06.07.2020 11:00:00 31,3 8,9 5 3 13 7 WZW 1014,5 20 59 0,0
06.07.2020 10:00:00 27,9 10,2 6 3 12 7 Z 1015,3 20 60 0,0
06.07.2020 09:00:00 23,4 10,4 6 3 15 8 Z 1016,4 20 58 0,0
06.07.2020 08:00:00 21,3 9,6 9 5 19 11 ZZO 1016,7 20 0 -
06.07.2020 07:00:00 21,1 6,2 10 5 18 10 ZZO 1016,6 20 0 0,0
06.07.2020 06:00:00 21,9 6,5 9 5 14 8 ZZO 1016,1 20 0 0,0
06.07.2020 05:00:00 22,4 6,2 7 4 16 8 Z 1016,1 20 0 0,0
06.07.2020 04:00:00 23,3 6,1 9 5 16 9 Z 1016,2 20 0 0,0
06.07.2020 03:00:00 24,4 4,6 10 5 17 9 Z 1016,2 20 0 0,0
06.07.2020 02:00:00 24,9 4,1 9 5 16 9 Z 1016,4 20 0 -
06.07.2020 01:00:00 26,0 5,6 8 5 15 8 Z 1016,3 20 0 0,0
06.07.2020 00:00:00 27,1 5,9 9 5 15 8 ZW 1015,9 20 0 0,0
05.07.2020 23:00:00 28,6 6,1 9 5 25 14 ZZW 1015,1 20 0 0,0
05.07.2020 22:00:00 31,0 6,1 13 7 27 15 ZW 1014,0 20 6 0,0
05.07.2020 21:00:00 33,8 4,5 14 7 27 14 ZW 1013,0 20 56 0,0
05.07.2020 20:00:00 35,5 3,9 14 7 29 16 Z 1012,4 20 56 -
05.07.2020 19:00:00 35,0 3,6 6 4 27 15 ZZW 1012,6 20 41 0,0
05.07.2020 18:00:00 37,1 4,1 10 5 37 20 ZW 1012,3 20 58 0,0
05.07.2020 17:00:00 37,2 4,1 11 6 34 19 ZZW 1012,7 20 57 0,0
05.07.2020 16:00:00 36,7 5,8 10 5 28 15 ZZW 1013,3 20 60 0,0
05.07.2020 15:00:00 35,2 6,4 8 4 26 14 ZW 1014,3 20 60 0,0
05.07.2020 14:00:00 34,6 5,9 10 5 24 13 ZZO 1015,1 20 60 -
05.07.2020 13:00:00 34,1 6,4 10 6 22 12 ZZW 1015,7 20 60 0,0
05.07.2020 12:00:00 32,6 7,4 8 4 20 11 Z 1016,3 20 60 0,0
05.07.2020 11:00:00 30,8 7,8 8 4 21 11 Z 1016,7 20 58 0,0
05.07.2020 10:00:00 27,7 8,0 10 5 18 10 ZZW 1017,6 20 60 0,0
05.07.2020 09:00:00 24,4 8,4 8 5 15 8 Z 1018,1 20 58 0,0
05.07.2020 08:00:00 21,6 10,4 7 4 14 7 Z 1018,4 20 0 -
05.07.2020 07:00:00 21,2 11,8 9 5 14 8 Z 1018,3 20 0 0,0
05.07.2020 06:00:00 21,1 11,4 9 5 19 10 Z 1018,1 20 0 0,0
05.07.2020 05:00:00 21,5 9,4 10 6 20 11 Z 1018,3 20 0 0,0
05.07.2020 04:00:00 21,9 7,0 10 5 17 9 Z 1018,4 20 0 0,0
05.07.2020 03:00:00 22,8 4,8 9 5 19 10 Z 1018,6 20 0 0,0
05.07.2020 02:00:00 24,1 2,9 8 4 21 11 Z 1018,6 20 0 -

tt = temperatuur
td = dauwpunt
ff = windsnelheid
fx = windstoten
dd = windrichting
ppp = luchtdruk
vv = zicht
sd = Zonneschijnduur
rr = neerslag

Weerstations in de omgeving